sat.trackr.live / text

‹ back to catalog

STARLINK-30830

NORAD 58194 · 2023-167V

PAYLOAD ACTIVE UNKNOWN

§ Identity

Operator
Country
US
Launch date
2023-10-30
Launch site
AFETR
Launch vehicle
Mass (kg)
RCS (m²)

Purposes: comms

External: N2YO · Heavens-Above · Gunter

§ Orbital elements

Epoch: 2026-05-25T03:45:30.011040Z

Period
94.27 min
Inclination
43.0024°
Eccentricity
0.0001204
Mean motion
15.27580744 rev/d
Perigee alt
482.2 km
Apogee alt
483.9 km
Semi-major
6,861.2 km
B*
4.0715e-5
RAAN
71.1935°
Arg perigee
274.4632°
Mean anomaly
85.6082°
Rev number
14,268

§ Raw data

STARLINK-308301 58194U 23167V   26145.15659735  .00000858  00000+0  40715-4 0  99962 58194  43.0024  71.1935 0001204 274.4632  85.6082 15.27580744142686

JSON: /api/v1/satellites/58194 · /tle

For live sub-satellite position, see the globe view (requires WebGL).

§ Visibility from observer

Set your observer location to see the next 7 days of passes ≥ 10°. The values pass through the URL so the page stays shareable.

No JS? Fill the form by hand. The geolocation button needs JavaScript.